Погода в Джаге

Россия / Карачаево-Черкесская Республика     43°57′15″N   42°33′17″E
темп.,
°C
ветер,
м/с
пор.,
м/с
влажн.,
%
обл.,
%
осадки,
мм/ч
давл.,
гПа
погр.,
м
2 декабря, чт
чт200:00−2зюз118994 0.0 101222
03:00−1ююз115912 0.0 101113
06:00−2с2274100 0.0 101527
09:00−1вюв118780 0.2 1018224
12:00+2зсз2370100 0.1 1019829
15:00+1с117786 0.3 1021511
18:00−1вюв228856 0.0 1022104
21:00−1ююв11864 0.0 102211
3 декабря, пт
пт300:000ю22530 0.0 102110
03:00+1ю21395 0.0 101910
06:00+2ю213490 0.0 101910
09:00+4ю2133100 0.0 101911
12:00+7всв1131100 0.0 1016149
15:00+6всв1146100 0.0 101712
18:00+3ююз22515 0.0 101810
21:00+3ююз22535 0.0 101911
4 декабря, сб
сб400:00+3ююз323817 0.0 102011
03:00+4ююз3236100 0.0 102011
06:00+3ю2237100 0.0 102011
09:00+5ююв22385 0.0 101917
12:00+10в23292 0.0 1016447
15:00+9в343993 0.0 101579
18:00+5ю224785 0.0 101611
21:00+5ююз3249100 0.0 101513
5 декабря, вс
вс500:00+5ююз324584 0.0 101413
03:00+6ююз2239100 0.0 101411
06:00+6ююз2237100 0.0 101310
09:00+7зсз1141100 0.0 101410
12:00+8с1141100 0.0 1014192
15:00+7с1146100 0.0 101493
18:00+6зюз1151100 0.0 101710
21:00+5ююв115371 0.0 101710
6 декабря, пн
пн600:00+4ююв215724 0.0 101710
03:00+4ююз215768 0.0 101810
06:00+4ююз22585 0.0 101911
09:00+6ю11545 0.0 102012
12:00+9всв21420 0.0 1019357
15:00+9св22455 0.0 1019258
18:00+5ю11587 0.0 102110
21:00+5ю225695 0.0 102211